Flag for U.S.A. Weather past 2 weeks in Daly City, California, U.S.A.

Now
52 °F

Passing clouds.


Feels Like: 47 °F
Forecast: 49 / 63 °F
Wind: 14 mph from Northwest

Location: San Francisco International Airport

Current Time: Apr 18, 2015 at 10:32:09 PM

Latest Report: Apr 18, 2015 at 9:56 PM


Visibility: 10 mi

Pressure: 29.96 "Hg

Humidity: 100%

Dew point: 52 °F

Location of Daly CityLocation

Historic Weather in Daly City — Graph

°F

Daly City temperature yesterday

Maximum temperature yesterday: 69 °F (at 2:56 PM)
Minimum temperature yesterday: 51 °F (at 9:56 PM)
Average temperature yesterday: 58 °F

Past Weeks' High & Low Weather Summary

 TemperatureHumidityPressure
High78 °F (Apr 16, 2:56 PM)100% (Apr 5, 11:56 AM)30.35 "Hg (Apr 5, 11:56 AM)
Low46 °F (Apr 6, 6:56 AM)20% (Apr 16, 2:56 PM)29.77 "Hg (Apr 7, 4:56 AM)
Average57 °F71%30.04 "Hg
* Reported Apr 3 8:56 PM — Apr 18 8:56 PM, Daly City, Weather by CustomWeather, © 2015

Note: Actual official high and low records may vary slightly from our data, if they occured in-between our weather recording intervals... More about our weather records

Advertising

Daly City weather history for previous 24 hours

 ConditionsComfort  
Time TempWeatherWind HumidityBarometerVisibility
8:56 PM
Sat, Apr 18
52 °FPassing clouds.16 mph100%29.95 "Hg10 mi
7:56 PM53 °FScattered clouds.16 mph96%29.93 "Hg10 mi
6:56 PM56 °FScattered clouds.20 mph90%29.92 "Hg10 mi
5:56 PM60 °FScattered clouds.21 mph75%29.93 "Hg10 mi
4:56 PM62 °FScattered clouds.20 mph70%29.93 "Hg10 mi
3:56 PM63 °FPassing clouds.18 mph68%29.95 "Hg10 mi
2:56 PM64 °FPassing clouds.21 mph65%29.97 "Hg10 mi
1:56 PM65 °FPassing clouds.16 mph63%29.98 "Hg10 mi
12:56 PM63 °FPassing clouds.7 mph70%30.01 "Hg10 mi
11:56 AM61 °FPassing clouds.6 mph75%30.03 "Hg10 mi
10:56 AM58 °FPassing clouds.6 mph84%30.05 "Hg9 mi
9:56 AM56 °FPassing clouds.5 mph87%30.04 "Hg10 mi
8:56 AM53 °FPartly sunny.No wind96%30.05 "Hg10 mi
7:56 AM51 °FPartly sunny.3 mph96%30.06 "Hg10 mi
6:56 AM49 °FPassing clouds.No wind93%30.05 "Hg10 mi
5:56 AM50 °FPassing clouds.No wind89%30.04 "Hg10 mi
4:56 AM50 °FPassing clouds.5 mph100%30.04 "Hg10 mi
3:56 AM50 °FPassing clouds.5 mph100%30.04 "Hg10 mi
2:56 AM50 °FPassing clouds.8 mph100%30.05 "Hg9 mi
1:56 AM51 °FPassing clouds.12 mph100%30.06 "Hg8 mi
12:56 AM51 °FPassing clouds.9 mph100%30.07 "Hg10 mi
11:56 PM
Fri, Apr 17
51 °FClear.13 mph100%30.07 "Hg9 mi
10:56 PM51 °FPassing clouds.14 mph100%30.07 "Hg9 mi
Weather by CustomWeather, © 2015

See weather overviewHow to use our weather pages